Regional Weather Roundup
Issued by NWS

Home | Current Version | Previous Version | Graphics & Text | Print | Product List | Glossary On
Versions: 1 2 3 4 5 6 7 8 9 10 11 12 13 14 15 16 17 18 19 20 21 22 23 24 25 26 27 28 29 30 31 32 33 34 35 36 37 38 39 40 41 42 43 44 45 46 47 48 49 50
000
ASUS43 KMKX 260721
RWRWI

WISCONSIN REGIONAL WEATHER ROUNDUP
NATIONAL WEATHER SERVICE MILWAUKEE/SULLIVAN WI
200 AM CDT SUN APR 26 2015

NOTE: "FAIR" INDICATES FEW OR NO CLOUDS BELOW 12,000 FEET WITH NO
SIGNIFICANT WEATHER AND/OR OBSTRUCTIONS TO VISIBILITY.

WIZ001-002-006>008-014>016-023>028-260800-
NORTHWEST WISCONSIN

CITY           SKY/WX    TMP DP  RH WIND       PRES   REMARKS
SUPERIOR ARPT  CLEAR     28  22  80 CALM      30.08S
ASHLAND        CLEAR     27  23  85 NE5       30.08R WCI  22
HAYWARD        CLEAR     28  22  78 N3        30.05R
SIREN          CLEAR     31  23  73 CALM      30.05R
CUMBERLAND     FAIR      32  21  64 NE6       30.02R WCI  26
RICE LAKE      FAIR      33  24  70 N6        30.03S WCI  27
CHETEK         FAIR      39  24  54 N7        30.02R WCI  34
LADYSMITH      CLEAR     35  24  63 NE3       30.03R
EAU CLAIRE     CLEAR     35  22  58 NE3       29.99R
MENOMONIE      CLEAR     38  21  50 N3        30.01R
NEW RICHMOND   FAIR      36  20  52 NE3       30.02R
OSCEOLA        CLEAR     35  20  54 N3        30.05S
$$

WIZ003>005-009-010-017-018-260800-
NORTH CENTRAL WISCONSIN

CITY           SKY/WX    TMP DP  RH WIND       PRES   REMARKS
MANITOWISH WTR CLEAR     26  21  82 CALM      30.02R
ARBOR VITAE    CLEAR     32  21  65 N5        30.02R WCI  27
WOODRUFF       CLEAR     32  21  65 N5        30.02R WCI  27
RHINELANDER    CLEAR     31  20  63 N5        30.01R WCI  26
EAGLE RIVER    CLEAR     27  19  74 CALM      30.01S
LAND O LAKES   CLEAR     30  19  62 N3        30.03R
PHILLIPS       CLEAR     31  22  70 N5        30.01R WCI  26
TOMAHAWK       CLEAR     29  22  76 CALM      30.01S
MEDFORD        CLEAR     33  22  66 CALM      30.00R
MERRILL        CLEAR     32  21  63 NE6       30.00R WCI  26
$$

WIZ029-030-035-036-043>047-260800-
CENTRAL WISCONSIN

CITY           SKY/WX    TMP DP  RH WIND       PRES   REMARKS
WAUSAU         CLEAR     35  21  56 N6        29.98R WCI  30
MOSINEE        CLEAR     34  21  60 NE6       30.00R WCI  29
MARSHFIELD     CLEAR     38  20  48 E5        29.98R WCI  34
STEVENS POINT  CLEAR     30  18  61 N3        30.00R
WAUPACA        CLEAR     37  22  55 CALM      29.99R
WAUTOMA        FAIR      37  20  50 N6        29.98R WCI  32
WISC RAPIDS    CLEAR     38  17  42 NE5       30.00R WCI  34
CAMP DOUGLAS   CLEAR     26  24  93 W3        29.98R
$$

WIZ011>013-019>022-031-037>040-048>050-260800-
NORTHEAST WISCONSIN

CITY           SKY/WX    TMP DP  RH WIND       PRES   REMARKS
ANTIGO         CLEAR     31  22  68 N6        29.99R WCI  25
SHAWANO        CLEAR     38  22  53 NE10      30.00R WCI  30
OCONTO         CLEAR     32  22  66 N3        30.00S
STURGEON BAY   CLEAR     34  23  64 N7        30.00S WCI  28
GREEN BAY      CLEAR     36  23  59 N10       29.98R WCI  28
MANITOWOC      CLEAR     38  28  67 NE8       29.97R WCI  32
APPLETON       CLEAR     34  23  64 N10       29.96S WCI  26
CLINTONVILLE   CLEAR     34  21  60 N6        29.99R WCI  29
OSHKOSH        CLEAR     41  29  62 NE13      29.96R
$$

WIZ032>034-041-042-053>061-260800-
SOUTHWEST WISCONSIN

CITY           SKY/WX    TMP DP  RH WIND       PRES   REMARKS
LA CROSSE      CLEAR     40  26  57 CALM      29.99R
SPARTA         CLEAR     26  19  73 CALM      30.01R
VIROQUA        CLEAR     35  17  48 NE5       29.97R WCI  31
BOSCOBEL       CLEAR     29  25  85 CALM      29.98R
PRAIRIE DU CHI CLEAR     33  26  76 CALM      29.96S
PLATTEVILLE    CLEAR     35  26  69 N5        29.94R WCI  31
$$

WIZ056-057-062-063-064-067-068-260800-
SOUTH CENTRAL WISCONSIN

CITY           SKY/WX    TMP DP  RH WIND       PRES   REMARKS
REEDSBURG      CLEAR     38  15  39 NE3       29.97R
BARABOO/DELLS  CLEAR     36  12  37 CALM      29.96R
LONE ROCK      CLEAR     31  24  75 CALM      29.97R
MINERAL POINT  CLEAR     37  18  44 N7        29.94S WCI  32
MADISON        CLEAR     33  22  63 MISG      29.94R
MIDDLETON      CLEAR     32  23  70 NW3       29.94F
WATERTOWN      CLEAR     35  24  64 N6        29.93R WCI  30
MONROE         CLEAR     37  27  65 N8        29.93R WCI  31
JANESVILLE     CLEAR     39  21  48 N3        29.91R
$$

WIZ051-052-058>065-066-070>072-260800-
SOUTHEAST WISCONSIN

CITY           SKY/WX    TMP DP  RH WIND       PRES   REMARKS
MILWAUKEE      CLEAR     38  30  73 N13       29.93R WCI  30
WAUKESHA       CLEAR     34  25  69 NE6       29.93S WCI  29
MILWAUKEE/TIMM CLEAR     37  28  70 N7        29.94R WCI  32
RACINE         CLEAR     38  30  73 NE9       29.93R WCI  31
BURLINGTON     CLEAR     31  22  68 CALM      29.92R
KENOSHA        CLEAR     36  29  75 N7        29.91R WCI  30
FOND DU LAC    CLEAR     40  24  53 NE14      29.96R WCI  32
SHEBOYGAN      CLEAR     38  28  67 NE12      29.95R WCI  30
WEST BEND      CLEAR     34  25  69 NE5       29.95R WCI  30
JUNEAU         CLEAR     36  24  64 N12       29.95R WCI  27
$$

LSZ147-162-260800-
LAKE SUPERIOR

STATION/POSITION TIME  TEMP    WIND        PRES    WAVE
                       AIR SEA DIR/SP/G            HT/PER
                 (UTC) (F)     (DEG/KT/KT) (MB)    (FT/S)
W MID LAKE BUOY  0650   35 34  330/  6/  8 1020.2R   1/ 3
DEVILS ISLAND    0700   37      30/  7/  8 1019.6R
PORT WING        0600   29     110/  3/  4 1018.6R
SAXON HARBOR     0640   27        CALM     1018.3R
$$

LMZ867-665-643>646-260800-
LAKE MICHIGAN

STATION/POSITION TIME  TEMP    WIND        PRES    WAVE
                       AIR SEA DIR/SP/G            HT/PER
                 (UTC) (F)     (DEG/KT/KT) (MB)    (FT/S)
CHAMBERS ISLAND  0600   37     350/  9/ 13 1015.9S
NORTHPORT PIER   0600   37     350/  9/ 19 1015.6S
SISTER BAY       0647   35        CALM       N/A
KEWAUNEE LAKESHO 0618   39      30/ 12/ 16 1013.9R
SHEBOYGAN LAKESH 0700   39      20/ 15/ 19 1015.0R
PORT WASHINGTON  0600   42      20/  8/ 18 1014.2R
MILWAUKEE LAKESH 0700   40      10/ 10/ 12   N/A
KENOSHA   LAKESH 0700   40     340/  6/ 12 1012.9R
$$

TC  - TEMPERATURE IN CELSIUS
VSB - VISIBILITY IN STATUTE MILES
WCI - WIND CHILL INDEX
HX  - HEAT INDEX




USA.gov is the U.S. government's official web portal to all federal, state and local government web resources and services.